Weather in Zolotilovo

Russia / Ivanovo Oblast     57°19′17″N   41°38′35″E
temp.,
°C
wind,
m/s
gust,
m/s
humid.,
%
clouds,
%
prec.,
mm/h
press.,
hPa
HPBL,
m
25 february, thu
thu2500:00−16s51094100 0.4 1028436
03:00−16s61096100 1.4 1025431
06:00−16s61295100 1.8 1020443
09:00−14s61195100 3.8 1016463
12:00−11s5894100 1.9 1012384
15:00−8sse3595100 3.0 1011257
18:00−8se229698 0.4 101165
21:00−6s229699 0.6 101161
26 february, fri
fri2600:00−3sw1198100 0.4 101079
03:00+1w3799100 0.6 1010268
06:000ssw2299100 0.1 100753
09:00+1s35100100 0.8 1005114
12:00+1ssw49100100 2.6 1001243
15:00+2sw511100100 5.8 998296
18:00+2w715100100 4.1 995603
21:00+1w81598100 4.6 994678
27 february, sat
sat2700:000wnw81497100 0.6 993732
03:000wnw81497100 2.1 994817
06:00−5nw71290100 1.1 995482
09:00−9nnw5994100 1.5 998550
12:00−9n5889100 0.3 1001635
15:00−8n5889100 0.3 1004651
18:00−10n3893100 0.1 1006325
21:00−12n3796100 0.1 1009162
28 february, sun
sun2800:00−15nnw349674 0.0 101087
03:00−16nnw369537 0.0 1012100
06:00−17n35963 0.0 101497
09:00−15n369426 0.0 1015264
12:00−10nnw479189 0.1 1016469
15:00−8nnw578995 0.1 1017630
18:00−9n4992100 0.1 1018465
21:00−12n349478 0.1 102153
1 march, mon
mon100:00−12n239694 0.1 102332
03:00−13nnw129793 0.1 102421
06:00−13nw239896 0.0 102522
09:00−11wnw239681 0.1 1025101
12:00−5wsw359274 0.0 1024327
15:00−3wsw489287 0.0 1022457
18:00−2wsw5119699 0.1 1020532
21:00−1wsw6129599 0.3 1016546